sat.trackr.live / text

‹ back to catalog

STARLINK-35963

NORAD 66585 · 2025-268AE

PAYLOAD ACTIVE UNKNOWN

§ Identity

Operator
Country
US
Launch date
2025-11-21
Launch site
AFETR
Launch vehicle
Mass (kg)
RCS (m²)

Purposes: comms

External: N2YO · Heavens-Above · Gunter

§ Orbital elements

Epoch: 2026-05-25T01:09:07.568928Z

Period
94.27 min
Inclination
43.0025°
Eccentricity
0.0001252
Mean motion
15.27580814 rev/d
Perigee alt
482.2 km
Apogee alt
483.9 km
Semi-major
6,861.2 km
B*
2.1071e-4
RAAN
276.1862°
Arg perigee
280.8417°
Mean anomaly
79.2293°
Rev number
2,963

§ Raw data

STARLINK-359631 66585U 25268AE  26145.04800427  .00005541  00000+0  21071-3 0  99942 66585  43.0025 276.1862 0001252 280.8417  79.2293 15.27580814 29631

JSON: /api/v1/satellites/66585 · /tle

For live sub-satellite position, see the globe view (requires WebGL).

§ Visibility from observer

Set your observer location to see the next 7 days of passes ≥ 10°. The values pass through the URL so the page stays shareable.

No JS? Fill the form by hand. The geolocation button needs JavaScript.